Tracking 22836 objects as of 16-Apr-2021
HD Live streaming from Space Station
objects crossing your sky now

BS-3B (YURI 3B)

Track BS-3B (YURI 3B) now!
BS-3B (YURI 3B) is classified as:


NORAD ID: 21668
Int'l Code: 1991-060A
Perigee: 36,182.9 km
Apogee: 36,244.3 km
Inclination: 13.4 °
Period: 1,457.6 minutes
Semi major axis: 42584 km
RCS: 1.6 m2 (large)
Launch date: August 25, 1991
Source: Japan (JPN)
Launch site: TANEGASHIMA SPACE CENTER (TNSTA)
aabbcc
Your satellite tracking list
Your tracking list is empty




NASA's NSSDC Master Catalog

Two Line Element Set (TLE):
1 21668U 91060A   21105.90210656 -.00000087  00000-0  00000+0 0  9992
2 21668  13.3898   9.1236 0007210  65.3663 118.2847  0.98792643110716
Source of the keplerian elements: AFSPC